Weather History for Tuscaloosa, AL

Change the Weather History Date:

Monday, April 28, 2014

  Actual Average Record
Temperature  
Mean Temperature 75 °F 67 °F  
Max Temperature 84 °F 79 °F 90 °F (1994)
Min Temperature 66 °F 54 °F 39 °F (1992)
Degree Days  
Heating Degree Days 0 2  
Month to date heating degree days 102 116  
Since 1 July heating degree days 2759 2500  
Cooling Degree Days 9    
Growing Degree Days 24 (Base 50)    
Moisture  
Dew Point 67 °F    
Average Humidity 80    
Maximum Humidity 97    
Minimum Humidity 63    
Precipitation  
Precipitation 1.38 in 0.13 in 1.87 in (1991)
Month to date precipitation 9.33 3.94  
Year to date precipitation 22.33 19.15  
Sea Level Pressure  
Sea Level Pressure 29.72 in    
Wind  
Wind Speed 10 mph (SSE)    
Max Wind Speed 10 mph    
Max Gust Speed 14 mph    
Visibility 8 miles    
Events Rain , Thunderstorm    
T = Trace of Precipitation, MM = Missing Value Source: NWS Daily Summary

Daily Weather History Graph

Daily Weather History Graph

Search for Another Location

Airport:

Trip Planner

Search our weather history database for the weather conditions in past years. The results will help you decide how hot, cold, wet, or windy it might be!

Date:

Astronomy

Apr. 28, 2014 Rise Set
Actual Time 6:05 AM CDT 7:30 PM CDT
Civil Twilight 5:39 AM CDT 7:56 PM CDT
Nautical Twilight 5:08 AM CDT 8:28 PM CDT
Astronomical Twilight 4:35 AM CDT 9:01 PM CDT
Moon 5:40 AM CDT (4/28) 7:09 PM CDT (4/28)
Length of Visible Light 14h 17m
Length of Day
13h 25m
Waning Crescent, 0% of the Moon is Illuminated
Apr 28
Waning Crescent
Apr 29
New
May 6
First Quarter
May 14
Full
May 21
Last Quarter

Hourly Weather History & Observations

Time (CDT) Temp. Heat Index Dew Point Humidity Pressure Visibility Wind Dir Wind Speed Gust Speed Precip Events Conditions
1:25 AM 73.4 °F - 66.2 °F 78% 29.80 in 10.0 mi South 10.4 mph 19.6 mph N/A   Mostly Cloudy
1:33 AM 71.6 °F - 66.2 °F 83% 29.80 in 10.0 mi South 12.7 mph 19.6 mph N/A   Overcast
1:43 AM 71.6 °F - 66.2 °F 83% 29.80 in 10.0 mi South 9.2 mph - N/A   Overcast
2:06 AM 71.6 °F - 66.2 °F 83% 29.79 in 10.0 mi South 10.4 mph - N/A   Overcast
3:53 AM 72.0 °F - 66.9 °F 84% 29.75 in 10.0 mi South 12.7 mph 17.3 mph N/A   Overcast
5:42 AM 71.6 °F - 68.0 °F 88% 29.77 in 9.0 mi SE 5.8 mph - N/A Thunderstorm Overcast
5:53 AM 72.0 °F - 68.0 °F 87% 29.77 in 9.0 mi SSE 4.6 mph - N/A Thunderstorm Overcast
6:04 AM 71.6 °F - 68.0 °F 88% 29.77 in 9.0 mi SE 5.8 mph - N/A   Overcast
6:42 AM 73.4 °F - 68.0 °F 83% 29.77 in 7.0 mi SSE 8.1 mph 17.3 mph N/A Thunderstorm Thunderstorm
6:53 AM 73.0 °F - 68.0 °F 84% 29.76 in 6.0 mi SE 11.5 mph 17.3 mph 0.00 in Rain , Thunderstorm Light Rain
7:29 AM 73.4 °F - 69.8 °F 88% 29.76 in 7.0 mi SSE 12.7 mph 18.4 mph 0.01 in Rain Light Rain
7:53 AM 73.0 °F - 69.1 °F 87% 29.77 in 7.0 mi Variable 4.6 mph - 0.01 in   Overcast
9:06 AM 75.2 °F - 69.8 °F 83% 29.81 in 8.0 mi South 12.7 mph - N/A   Mostly Cloudy
9:53 AM 75.9 °F - 69.1 °F 79% 29.80 in 8.0 mi South 8.1 mph - N/A   Mostly Cloudy
10:15 AM 77.0 °F - 69.8 °F 78% 29.82 in 7.0 mi South 10.4 mph - N/A   Overcast
10:46 AM 78.8 °F - 69.8 °F 74% 29.84 in 8.0 mi SSW 15.0 mph - N/A   Overcast
10:53 AM 79.0 °F - 69.1 °F 72% 29.83 in 8.0 mi South 15.0 mph 21.9 mph N/A   Mostly Cloudy
11:53 AM 80.1 °F 82.9 °F 69.1 °F 69% 29.81 in 8.0 mi South 9.2 mph 17.3 mph N/A   Mostly Cloudy
12:53 PM 81.0 °F 84.4 °F 70.0 °F 69% 29.75 in 8.0 mi South 11.5 mph 21.9 mph N/A   Clear
1:53 PM 82.9 °F 86.5 °F 69.1 °F 63% 29.73 in 8.0 mi South 12.7 mph 23.0 mph N/A   Mostly Cloudy
2:53 PM 82.9 °F 86.5 °F 69.1 °F 63% 29.68 in 9.0 mi South 15.0 mph 23.0 mph N/A   Scattered Clouds
5:53 PM 80.1 °F 82.7 °F 68.0 °F 67% 29.59 in 9.0 mi SSE 9.2 mph 19.6 mph N/A   Mostly Cloudy
6:53 PM 79.0 °F - 68.0 °F 69% 29.60 in 10.0 mi South 13.8 mph 21.9 mph N/A   Clear
7:21 PM 80.6 °F 82.7 °F 66.2 °F 61% 29.62 in 10.0 mi South 16.1 mph 23.0 mph N/A Thunderstorm Thunderstorm
7:43 PM 80.6 °F 83.2 °F 68.0 °F 65% 29.65 in 10.0 mi South 12.7 mph 18.4 mph 0.00 in   Mostly Cloudy
7:53 PM 80.1 °F 82.7 °F 68.0 °F 67% 29.62 in 10.0 mi SSE 12.7 mph 23.0 mph 0.00 in Thunderstorm Mostly Cloudy
8:53 PM 69.1 °F - 64.9 °F 87% 29.58 in 10.0 mi NE 15.0 mph - 0.01 in Rain , Thunderstorm Light Thunderstorms and Rain
9:31 PM 69.8 °F - 66.2 °F 88% 29.65 in 4.0 mi Variable 5.8 mph 23.0 mph 0.06 in Rain , Thunderstorm Thunderstorms and Rain
9:35 PM 69.8 °F - 66.2 °F 88% 29.66 in 1.8 mi West 3.5 mph - 0.11 in Rain , Thunderstorm Heavy Thunderstorms and Rain
9:58 PM 69.8 °F - 68.0 °F 94% 29.67 in 0.8 mi WNW 5.8 mph - 0.18 in Rain , Thunderstorm Heavy Thunderstorms and Rain
10:22 PM 66.2 °F - 64.4 °F 94% 29.66 in 1.2 mi East 4.6 mph - 0.75 in Rain , Thunderstorm Heavy Thunderstorms and Rain
10:32 PM 66.2 °F - 64.4 °F 94% 29.66 in 3.0 mi ESE 8.1 mph - 0.80 in Rain , Thunderstorm Thunderstorms and Rain
10:42 PM 66.2 °F - 64.4 °F 94% 29.66 in 5.0 mi Calm Calm - 0.83 in Rain , Thunderstorm Rain
10:53 PM 66.9 °F - 64.9 °F 93% 29.62 in 5.0 mi ENE 8.1 mph - 0.85 in Rain , Thunderstorm Light Rain
11:08 PM 66.2 °F - 64.4 °F 94% 29.60 in 10.0 mi NNE 4.6 mph - 0.02 in Rain , Thunderstorm Light Rain
11:26 PM 66.2 °F - 66.2 °F 100% 29.66 in 10.0 mi NW 8.1 mph - 0.02 in Rain , Thunderstorm Light Rain
11:46 PM 68.0 °F - 66.2 °F 94% 29.65 in 7.0 mi NNW 6.9 mph - 0.03 in Rain Light Rain
11:53 PM 68.0 °F - 66.9 °F 96% 29.65 in 10.0 mi NW 4.6 mph - 0.03 in Rain Light Rain